STARLINK C

Last updated on Wed Jul 02 2025 00:02:08 GMT+0000 (Coordinated Universal Time)

1 64596U 25137C 25182.75001157 -.00810168 21416-3 -21076-2 0 9993 2 64596 53.1566 79.6790 0000680 128.8803 142.7894 15.94289096 2055

Satellite not in orbit